Regional Weather Roundup
Issued by NWS

Home | Current Version | Previous Version | Graphics & Text | Print | Product List | Glossary On
Versions: 1 2 3 4 5 6 7 8 9 10 11 12 13 14 15 16 17 18 19 20 21 22 23 24 25 26 27 28 29 30 31 32 33 34 35 36 37 38 39 40 41 42 43 44 45 46 47 48 49 50
530
ASUS43 KTOP 301208
RWRKS

WEATHER ROUNDUP FOR KANSAS
NATIONAL WEATHER SERVICE GOODLAND KS
700 AM CDT FRI SEP 30 2016

NOTE:  "FAIR" INDICATES FEW OR NO CLOUDS BELOW 12,000 FEET WITH NO
SIGNIFICANT WEATHER AND/OR OBSTRUCTIONS TO VISIBILITY.

KSZ001>006-013>018-027>032-041>047-301300-
NORTHWEST KANSAS

CITY           SKY/WX    TMP DP  RH WIND       PRES   REMARKS
GOODLAND       CLEAR     46  41  82 S15       30.22S
6HR MIN TEMP:  45; 6HR MAX TEMP:  50;

HAYS           CLEAR     43  34  70 CALM      30.28S
HILL CITY      CLEAR     42  40  92 N3        30.28F
6HR MIN TEMP:  41; 6HR MAX TEMP:  48;

$$

KSZ061>065-074>080-084>089-301300-
SOUTHWEST KANSAS

CITY           SKY/WX    TMP DP  RH WIND       PRES   REMARKS
DODGE CITY     CLEAR     47  44  90 S6        30.28S
6HR MIN TEMP:  46; 6HR MAX TEMP:  51;

ELKHART          N/A     45  37  73 SE9         N/A
GARDEN CITY    CLEAR     47  43  86 SE9       30.25S
6HR MIN TEMP:  47; 6HR MAX TEMP:  52;

GREAT BEND     CLEAR     43  34  70 CALM      30.29S
LIBERAL        CLEAR     48  39  71 SE8       30.26S
PRATT          CLEAR     44  42  90 CALM      30.29R
6HR MIN TEMP:  42; 6HR MAX TEMP:  52;

$$

KSZ066>073-081>083-090>101-301300-
SOUTHEAST KANSAS

CITY           SKY/WX    TMP DP  RH WIND       PRES   REMARKS
CHANUTE        CLEAR     50  48  93 NW6       30.24R
6HR MIN TEMP:  49; 6HR MAX TEMP:  53;

COFFEYVILLE    CLEAR     49  48  97 W3        30.24R
6HR MIN TEMP:  49; 6HR MAX TEMP:  53;

HUTCHINSON     CLEAR     44  43  96 CALM      30.29R
6HR MIN TEMP:  43; 6HR MAX TEMP:  50;

MEDICINE LODGE   N/A     45  43  93 N3        30.28R
NEWTON         CLEAR     49  47  93 N6        30.28S
PARSONS        CLEAR     48  46  93 N3        30.25R
6HR MIN TEMP:  45; 6HR MAX TEMP:  48;

WICHITA INTL   CLEAR     49  47  93 N3        30.27S
6HR MIN TEMP:  48; 6HR MAX TEMP:  56;

WICHITA JABRA  CLEAR     48  47  96 N5        30.27S
6HR MIN TEMP:  48; 6HR MAX TEMP:  54;

WICHITA MCCONL CLEAR     51  47  87 N5        30.27S FOG
WINFIELD       CLEAR     47  45  93 N3        30.28R
6HR MIN TEMP:  46; 6HR MAX TEMP:  53;

$$

KSZ007>012-019>026-033>040-048>060-102>105-301300-
NORTHEAST KANSAS

CITY           SKY/WX    TMP DP  RH WIND       PRES   REMARKS
CONCORDIA      CLEAR     41  41 100 W3        30.29R
6HR MIN TEMP:  41; 6HR MAX TEMP:  52;

EMPORIA        CLEAR     47  46  97 NW5       30.26S
6HR MIN TEMP:  47; 6HR MAX TEMP:  52;

LAWRENCE       CLEAR     45  45 100 W5        30.26R
6HR MIN TEMP:  45; 6HR MAX TEMP:  50;

MANHATTAN      CLEAR     44  43  96 CALM      30.28S
6HR MIN TEMP:  43; 6HR MAX TEMP:  48;

MARYSVILLE     CLEAR     43  43 100 NW5       30.28S
OLATHE IND     CLEAR     48  47  96 NW6       30.25S
6HR MIN TEMP:  48; 6HR MAX TEMP:  53;

OLATHE EXE     CLEAR     50  48  93 N6        30.24S
6HR MIN TEMP:  50; 6HR MAX TEMP:  57;

SALINA         CLEAR     47  45  93 CALM      30.29S
6HR MIN TEMP:  45; 6HR MAX TEMP:  53;

TOPEKA BILLARD CLEAR     48  45  89 CALM      30.27R
6HR MIN TEMP:  47; 6HR MAX TEMP:  52;

TOPEKA FORBES  CLEAR     49  46  90 N5        30.26S
6HR MIN TEMP:  48; 6HR MAX TEMP:  52;

$$




USA.gov is the U.S. government's official web portal to all federal, state and local government web resources and services.